Regional Weather Roundup
Issued by NWS Sioux Falls, SD

Home | Current Version | Previous Version | Graphics & Text | Print | Product List | Glossary On
Versions: 1 2 3 4 5 6 7 8 9 10 11 12 13 14 15 16 17 18 19 20 21 22 23 24 25 26 27 28 29 30 31 32 33 34 35 36 37 38 39 40 41 42 43 44 45 46 47 48 49 50
000
ASUS43 KFSD 061502
RWRFSD

WEATHER ROUNDUP FOR SE SOUTH DAKOTA/SW MINNESOTA/NW IOWA
NATIONAL WEATHER SERVICE SIOUX FALLS SD
1000 AM CDT WED MAY 06 2015

NOTE: "FAIR" INDICATES FEW OR NO CLOUDS BELOW 12,000 FEET WITH NO
SIGNIFICANT WEATHER AND OR OBSTRUCTIONS TO VISIBILITY.


SDZ038>040-050-052>070-061600-
SOUTHEAST SOUTH DAKOTA

CITY           SKY/WX    TMP DP  RH WIND       PRES   REMARKS
BROOKINGS      CLOUDY    63  61  94 SE16      29.88F
CHAMBERLAIN    NOT AVBL
HURON          CLOUDY    63  60  90 SE15G23   29.80F
MADISON        FAIR      61  61 100 SE15G21   29.87F
MITCHELL       LGT RAIN  63  61  93 SE18      29.80F FOG
SIOUX FALLS    LGT RAIN  65  60  84 SE17G23   29.84F
WINNER         CLOUDY    64  57  78 SE16      29.73F
YANKTON        CLOUDY    63  59  88 E14       29.78F
$$

MNZ071-072-080-081-089-090-097-098-061600-
SOUTHWEST MINNESOTA

CITY           SKY/WX    TMP DP  RH WIND       PRES   REMARKS
FAIRMONT       CLOUDY    63  46  55 SE16      29.97F
JACKSON        CLOUDY    61  61 100 SE20G25   29.96F FOG
LUVERNE        CLOUDY    66  59  77 SE18G25   29.87F HAZE
MARSHALL       CLOUDY    63  57  82 SE14      29.91F
MONTEVIDEO     DRIZZLE   61  61 100 S17       29.93F
REDWOOD FALLS  CLOUDY    61  59  93 SE16G23   29.95F FOG
TRACY          CLOUDY    65  62  89 SE15G21   29.94S FOG
WORTHINGTON    CLOUDY    63  57  82 SE20G26   29.92F
$$

IAZ001>003-012>014-020>022-031-032-NEZ013-014-SDZ071-061600-
NORTHWEST IOWA

CITY           SKY/WX    TMP DP  RH WIND       PRES   REMARKS
DENISON        CLOUDY    68  63  83 SE20G25   29.85F
ESTHERVILLE    CLOUDY    64  62  93 SE21      29.95F FOG
SIOUX CITY     CLOUDY    66  59  78 SE17G28   29.82F
SPENCER        PTSUNNY   67  62  84 SE16G24   29.91F HAZE
$$

ABBREVIATIONS USED IN REMARKS
   TC - TEMPERATURE IN CELSIUS
  WCI - WIND CHILL INDEX
   HX - HEAT INDEX
  VSB - VISIBILITY



USA.gov is the U.S. government's official web portal to all federal, state and local government web resources and services.